Tucson Davis Monthan, AZ

12:15 AM MST on March 30, 2017 (GMT -0700)
Davis-Monthan Air Force Base

Weather History for KDMA - April, 2014

Change the Weather History Date:

Wednesday, April 16, 2014

  Actual Average Record
Temperature  
Mean Temperature 70 °F -  
Max Temperature 86 °F 81 °F 97 °F (1987)
Min Temperature 54 °F 51 °F 34 °F (1976)
Cooling Degree Days 5    
Growing Degree Days 20 (Base 50)    
Moisture  
Dew Point 11 °F    
Average Humidity 10    
Maximum Humidity 20    
Minimum Humidity 5    
Precipitation  
Precipitation 0.00 in - - ()
Sea Level Pressure  
Sea Level Pressure 29.74 in    
Wind  
Wind Speed 9 mph (SW)    
Max Wind Speed 20 mph    
Max Gust Speed 26 mph    
Visibility 10 miles    
Events      
Averages and records for this station are not official NWS values.
T = Trace of Precipitation, MM = Missing Value Source: NWS Daily Summary

Daily Weather History Graph

Daily Weather History Graph

Search for Another Location

Airport or City:

Trip Planner

Search our weather history database for the weather conditions in past years. The results will help you decide how hot, cold, wet, or windy it might be!

Date:

Astronomy

Apr. 16, 2014 Rise Set
Actual Time 5:53 AM MST 6:53 PM MST
Civil Twilight 5:28 AM MST 7:18 PM MST
Nautical Twilight 4:58 AM MST 7:48 PM MST
Astronomical Twilight 4:27 AM MST 8:19 PM MST
Moon 8:35 PM MST (4/16) 6:46 AM MST (4/16)
Length of Visible Light 13h 50m
Length of Day
13h 00m
Full, 98% of the Moon is Illuminated
Apr 16
Full
Apr 22
Last Quarter
Apr 28
New
May 6
First Quarter
May 14
Full

Hourly Weather History & Observations

Time (MST) Temp. Dew Point Humidity Pressure Visibility Wind Dir Wind Speed Gust Speed Precip Events Conditions
12:58 AM 59.2 °F 11.8 °F 16% 29.85 in 10.0 mi SSE 4.6 mph - N/A   Clear
1:58 AM 55.8 °F 11.8 °F 18% 29.84 in 10.0 mi SE 9.2 mph - N/A   Clear
2:58 AM 54.9 °F 10.9 °F 17% 29.73 in 10.0 mi SSE 8.1 mph - N/A   Clear
3:58 AM 54.5 °F 12.0 °F 19% 29.73 in 10.0 mi SE 10.4 mph - N/A   Clear
4:58 AM 55.2 °F 11.3 °F 17% 29.72 in 10.0 mi SE 11.5 mph - N/A   Clear
5:58 AM 56.3 °F 10.8 °F 16% 29.73 in 10.0 mi SE 8.1 mph - N/A   Clear
6:58 AM 56.8 °F 12.7 °F 18% 29.76 in 10.0 mi NE 6.9 mph - N/A   Clear
7:58 AM 63.9 °F 13.6 °F 14% 29.75 in 10.0 mi SE 8.1 mph - N/A   Clear
8:58 AM 72.9 °F 8.4 °F 8% 29.74 in 10.0 mi East 4.6 mph - 0.00 in   Clear
9:58 AM 76.5 °F 8.4 °F 7% 29.76 in 10.0 mi South 3.5 mph - N/A   Clear
10:58 AM 77.9 °F 4.3 °F 6% 29.75 in 10.0 mi Variable 2.3 mph - N/A   Clear
11:58 AM 80.8 °F 8.1 °F 6% 29.73 in 10.0 mi Variable 4.6 mph - 0.00 in   Clear
12:58 PM 81.7 °F 8.8 °F 6% 29.71 in 10.0 mi West 5.8 mph - N/A   Clear
1:26 PM 84.2 °F 6.8 °F 5% 29.80 in 10.0 mi WSW 11.5 mph 19.6 mph N/A   Clear
1:58 PM 85.1 °F 7.2 °F 5% 29.69 in 10.0 mi Variable 6.9 mph 20.7 mph N/A   Clear
2:01 PM 86.0 °F 8.6 °F 5% 29.79 in 10.0 mi WNW 13.8 mph 20.7 mph N/A   Clear
2:58 PM 85.8 °F 7.7 °F 5% 29.67 in 10.0 mi NW 17.3 mph 25.3 mph N/A   Clear
3:56 PM 86.0 °F 12.2 °F 6% 29.75 in 10.0 mi NNW 15.0 mph 26.5 mph N/A   Clear
3:57 PM 86.0 °F 12.2 °F 6% 29.74 in 10.0 mi WNW 19.6 mph 26.5 mph N/A   Clear
3:58 PM 86.0 °F 12.0 °F 6% 29.64 in 10.0 mi West 18.4 mph 26.5 mph N/A   Clear
4:58 PM 85.6 °F 7.5 °F 5% 29.66 in 10.0 mi NW 15.0 mph 21.9 mph N/A   Clear
5:58 PM 84.0 °F 10.6 °F 6% 29.66 in 10.0 mi WNW 13.8 mph - N/A   Clear
6:08 PM 84.2 °F 10.4 °F 6% 29.76 in 10.0 mi WNW 11.5 mph - N/A   Clear
6:58 PM 81.1 °F 10.6 °F 7% 29.67 in 10.0 mi WNW 9.2 mph - N/A   Clear
7:58 PM 77.4 °F 9.0 °F 7% 29.69 in 10.0 mi West 6.9 mph - N/A   Clear
8:58 PM 73.2 °F 11.5 °F 9% 29.70 in 10.0 mi West 8.1 mph - N/A   Clear
9:58 PM 68.4 °F 12.2 °F 11% 29.74 in 10.0 mi SSW 8.1 mph - N/A   Clear
10:58 PM 68.2 °F 10.4 °F 11% 29.77 in 10.0 mi SSW 8.1 mph - N/A   Clear
11:58 PM 68.5 °F 25.2 °F 20% 29.79 in 10.0 mi SSW 10.4 mph - N/A   Clear